Flag for USA

Past Weather in Anchorage, Alaska, USA — Yesterday and Last 2 Weeks

Now
47 °F

Overcast.


Feels Like: 43 °F
Forecast: 58 / 46 °F
Wind: 7 mph from North

Location: Lake Hood Seaplane
Current Time: Sep 30, 2020 at 8:41:21 am
Latest Report: Sep 30, 2020 at 7:53 am
Visibility: 10 mi
Pressure29.49 "Hg
Humidity: 77%
Dew Point: 40 °F
Location of AnchorageLocation

Past Weather in Anchorage — Graph

°F

Anchorage Temperature Yesterday

Maximum temperature yesterday: 52 °F (at 11:53 am)
Minimum temperature yesterday: 45 °F (at 8:53 am)
Average temperature yesterday: 49 °F

High & Low Weather Summary for the Past Weeks

 TemperatureHumidityPressure
High60 °F (Sep 17, 3:53 pm)100% (Sep 17, 1:00 am)30.13 "Hg (Sep 17, 1:00 am)
Low40 °F (Sep 21, 8:53 am)46% (Sep 17, 9:53 pm)28.94 "Hg (Sep 27, 1:53 pm)
Average49 °F83%29.55 "Hg
* Reported Sep 15 6:53 am — Sep 30 6:53 am, Anchorage. Weather by CustomWeather, © 2020

Note: Actual official high and low records may vary slightly from our data, if they occured in-between our weather recording intervals... More about our weather records

Anchorage Weather History for the Previous 24 Hours

Scroll right to see more
 ConditionsComfort  
Time TempWeatherWind HumidityBarometerVisibility
6:53 am
Wed, Sep 30
47 °FPassing clouds.10 mph77%29.52 "Hg10 mi
5:53 am46 °FPassing clouds.12 mph83%29.56 "Hg10 mi
4:53 am46 °FPassing clouds.10 mph77%29.60 "Hg10 mi
3:53 am48 °FOvercast.7 mph77%29.63 "Hg10 mi
2:53 am46 °FOvercast.9 mph86%29.67 "Hg10 mi
1:53 am49 °FMostly cloudy.9 mph66%29.69 "Hg10 mi
12:53 am49 °FLight rain. Overcast.8 mph66%29.71 "Hg10 mi
11:53 pm
Tue, Sep 29
48 °FMostly cloudy.3 mph71%29.73 "Hg10 mi
10:53 pm48 °FOvercast.3 mph74%29.77 "Hg10 mi
9:53 pm48 °FOvercast.7 mph80%29.81 "Hg10 mi
8:53 pm47 °FMostly cloudy.No wind83%29.84 "Hg10 mi
7:53 pm47 °FClear.No wind77%29.88 "Hg10 mi
6:53 pm49 °FSunny.No wind77%29.92 "Hg10 mi
5:53 pm51 °FSunny.No wind69%29.94 "Hg10 mi
4:53 pm51 °FSunny.5 mph66%29.98 "Hg10 mi
3:53 pm51 °FSunny.6 mph66%30.02 "Hg10 mi
2:53 pm51 °FSunny.No wind66%30.06 "Hg10 mi
1:53 pm50 °FSunny.3 mph71%30.09 "HgN/A
12:53 pm49 °FSunny.8 mph74%30.10 "Hg10 mi
11:53 am52 °FSunny.No wind64%30.13 "Hg10 mi
10:53 am48 °FSunny.No wind74%30.13 "Hg10 mi
9:53 am46 °FSunny.8 mph79%30.11 "Hg10 mi
8:53 am45 °FSunny.5 mph86%30.12 "Hg10 mi
Weather by CustomWeather, © 2020

See weather overview